User: anonymous   Login
Location: Unspecified
(0.0000°N, 0.0000°E)
Time: 19:56:33
(UTC+00:00)
Language:

OBJECT AA - Orbit

View from above orbital plane
View from above orbital plane
View from above satellite
View from above satellite

Ground track
Ground track

The orbit data is extracted from the following two-line orbital elements,

1 42849U 17042AA  24151.49379696  .00003665  00000-0  31247-3 0  9997
2 42849  97.3721 339.3441 0008317 109.0151 251.1974 14.98286184374869
Epoch (UTC): 30 May 2024 11:51:04
Eccentricity: 0.0008317
inclination: 97.3721°
perigee height: 566 km
apogee height: 578 km
right ascension of ascending node: 339.3441°
argument of perigee: 109.0151°
revolutions per day: 14.98286184
mean anomaly at epoch: 251.1974°
orbit number at epoch: 37486

The dashed part of the orbit path shows where the satellite is in the earth's shadow,  

DLR